Find PRAETORIAN SDA_520

NORAD ID: 100078 Int'l Des: 2026-163V Country: USA operational

当前视图

正在加载3D地球...

About PRAETORIAN SDA_520

PRAETORIAN SDA_520 (NORAD 100078) is a satellite of USA.

即将过境

Passes for default location (London). Set your location on the main map for personalized predictions.

高度历史

Loading altitude history...

两行轨道根数

1 A0078U 26206.56164228 .00000097 00000-0 73725-4 0 9999
2 A0078 81.4847 301.7553 0016309 189.2498 170.8362 13.86095809 1213
Epoch: Jul 25, 2026 • Age: 11 hours

当前状态

高度 933.9 km
远地点 / 近地点 N/A
速度 7.39 km/s
星下点 -4.21°S, 166.83°E
类型 other

Most Searched